Flag for USA Past Weather in Bryan – College Station, Texas, USA — Yesterday and Last 2 Weeks

Now
44 °F

Overcast.


Feels Like: 41 °F
Forecast: 33 / 53 °F
Wind: 6 mph from Northeast

Location: Easterwood Field

Current Time: Dec 9, 2016 at 7:32:24 pm

Latest Report: Dec 9, 2016 at 6:53 pm


Visibility: 10 mi

Pressure: 30.52 "Hg

Humidity: 40%

Dew Point: 21 °F

Location of Bryan – College StationLocation

Past Weather in Bryan – College Station — Graph

°F

Bryan – College Station Temperature Yesterday

Maximum temperature yesterday: 52 °F (at 12:53 am)
Minimum temperature yesterday: 36 °F (at 10:53 pm)
Average temperature yesterday: 43 °F

High & Low Weather Summary for the Past Weeks

 TemperatureHumidityPressure
High80 °F (Nov 28, 1:53 pm)100% (Nov 28, 5:00 am)30.64 "Hg (Nov 28, 5:00 am)
Low33 °F (Dec 9, 5:53 am)20% (Nov 28, 2:53 pm)29.50 "Hg (Nov 28, 3:53 pm)
Average55 °F74%30.04 "Hg
* Reported Nov 24 5:53 pm — Dec 9 5:53 pm, Bryan – College Station, Weather by CustomWeather, © 2016

Note: Actual official high and low records may vary slightly from our data, if they occured in-between our weather recording intervals... More about our weather records

Advertising

Bryan – College Station Weather History for the Previous 24 Hours

Scroll right to see more
 ConditionsComfort  
Time TempWeatherWind HumidityBarometerVisibility
5:53 pm
Fri, Dec 9
44 °FOvercast.6 mph38%30.51 "Hg10 mi
4:53 pm45 °FOvercast.5 mph33%30.51 "Hg10 mi
3:53 pm47 °FSunny.7 mph32%30.52 "Hg10 mi
2:53 pm48 °FOvercast.8 mph30%30.52 "Hg10 mi
1:53 pm45 °FOvercast.No wind34%30.55 "Hg10 mi
12:53 pm43 °FOvercast.7 mph38%30.57 "Hg10 mi
11:53 am41 °FOvercast.7 mph43%30.60 "Hg10 mi
10:53 am39 °FOvercast.9 mph45%30.63 "Hg10 mi
9:53 am37 °FOvercast.10 mph48%30.64 "Hg10 mi
8:53 am37 °FOvercast.15 mph48%30.63 "Hg10 mi
7:53 am33 °FOvercast.12 mph56%30.63 "Hg10 mi
6:53 am33 °FOvercast.10 mph56%30.63 "Hg10 mi
5:53 am33 °FOvercast.10 mph58%30.62 "Hg10 mi
4:53 am34 °FOvercast.12 mph56%30.61 "Hg10 mi
3:53 am34 °FOvercast.14 mph56%30.63 "Hg10 mi
2:53 am35 °FOvercast.14 mph54%30.61 "Hg10 mi
1:53 am36 °FOvercast.13 mph54%30.62 "Hg10 mi
12:53 am36 °FOvercast.14 mph57%30.62 "Hg10 mi
11:53 pm
Thu, Dec 8
36 °FOvercast.16 mph54%30.63 "Hg10 mi
10:53 pm36 °FOvercast.15 mph57%30.63 "Hg10 mi
9:53 pm37 °FOvercast.17 mph57%30.63 "Hg10 mi
8:53 pm37 °FMostly cloudy.17 mph60%30.63 "Hg10 mi
7:53 pm38 °FOvercast.18 mph60%30.60 "Hg10 mi
Weather by CustomWeather, © 2016

See weather overviewHow to use our weather pages